TimeEST,TemperatureF,Dew PointF,Humidity,Sea Level PressureIn,VisibilityMPH,Wind Direction,Wind SpeedMPH,Gust SpeedMPH,PrecipitationIn,Events,Conditions,WindDirDegrees,DateUTC
12:08 AM,35.6,33.8,93,29.72,4.0,NW,6.9,-,0.00,Rain,Light Rain,320,2012-12-18 05:08:00
12:49 AM,33.8,32.0,93,29.72,4.0,NW,6.9,-,0.01,Rain,Light Rain,320,2012-12-18 05:49:00
12:54 AM,34.0,32.0,92,29.74,4.0,NW,5.8,-,0.01,,Overcast,310,2012-12-18 05:54:00
1:10 AM,33.8,32.0,93,29.73,4.0,NW,4.6,-,0.01,,Overcast,310,2012-12-18 06:10:00
1:54 AM,34.0,33.1,96,29.75,4.0,West,3.5,-,0.01,,Overcast,270,2012-12-18 06:54:00
2:05 AM,33.8,33.8,100,29.74,3.0,West,3.5,-,N/A,,Overcast,280,2012-12-18 07:05:00
2:21 AM,33.8,33.8,100,29.75,3.0,West,5.8,-,N/A,,Overcast,280,2012-12-18 07:21:00
2:54 AM,34.0,33.1,96,29.77,4.0,West,5.8,-,0.00,,Overcast,280,2012-12-18 07:54:00
3:54 AM,35.1,33.1,92,29.78,4.0,WNW,5.8,-,N/A,,Overcast,290,2012-12-18 08:54:00
4:54 AM,34.0,33.1,96,29.78,5.0,West,4.6,-,N/A,,Overcast,270,2012-12-18 09:54:00
5:54 AM,34.0,32.0,92,29.81,6.0,West,4.6,-,N/A,,Overcast,270,2012-12-18 10:54:00
6:18 AM,33.8,32.0,93,29.78,6.0,West,4.6,-,N/A,,Overcast,280,2012-12-18 11:18:00
6:54 AM,34.0,30.9,89,29.81,7.0,WSW,8.1,-,N/A,,Overcast,250,2012-12-18 11:54:00
7:54 AM,33.1,28.0,82,29.84,10.0,West,8.1,-,N/A,,Overcast,260,2012-12-18 12:54:00
8:01 AM,33.8,28.4,81,29.83,10.0,WSW,5.8,-,N/A,,Overcast,250,2012-12-18 13:01:00
8:54 AM,34.0,28.9,82,29.83,9.0,SSW,3.5,-,N/A,,Overcast,210,2012-12-18 13:54:00
9:54 AM,34.0,30.0,85,29.83,8.0,SSW,3.5,-,N/A,,Overcast,200,2012-12-18 14:54:00
10:01 AM,35.6,30.2,81,29.82,8.0,SSW,3.5,-,N/A,,Overcast,210,2012-12-18 15:01:00
10:54 AM,36.0,30.0,79,29.84,9.0,SSW,8.1,-,N/A,,Overcast,210,2012-12-18 15:54:00
11:54 AM,36.0,30.9,82,29.84,9.0,Variable,6.9,16.1,N/A,,Overcast,0,2012-12-18 16:54:00
12:54 PM,37.9,32.0,79,29.78,10.0,South,11.5,17.3,N/A,,Overcast,170,2012-12-18 17:54:00
1:54 PM,37.9,33.1,83,29.75,9.0,South,11.5,-,N/A,,Mostly Cloudy,170,2012-12-18 18:54:00
2:54 PM,37.9,33.1,83,29.72,9.0,South,11.5,18.4,N/A,,Mostly Cloudy,180,2012-12-18 19:54:00
3:28 PM,39.2,33.8,81,29.67,9.0,South,10.4,18.4,N/A,,Scattered Clouds,170,2012-12-18 20:28:00
3:54 PM,39.0,34.0,82,29.65,8.0,South,13.8,25.3,N/A,,Partly Cloudy,170,2012-12-18 20:54:00
4:54 PM,39.9,33.1,77,29.68,10.0,SSW,9.2,17.3,N/A,,Clear,200,2012-12-18 21:54:00
5:54 PM,39.0,33.1,79,29.67,10.0,SSW,8.1,-,N/A,,Clear,200,2012-12-18 22:54:00
6:54 PM,39.0,34.0,82,29.69,10.0,South,4.6,-,N/A,,Mostly Cloudy,190,2012-12-18 23:54:00
7:54 PM,39.0,34.0,82,29.70,10.0,North,3.5,-,N/A,,Overcast,10,2012-12-19 00:54:00
8:54 PM,42.1,36.0,79,29.69,10.0,SW,6.9,-,N/A,,Overcast,230,2012-12-19 01:54:00
9:54 PM,43.0,36.0,76,29.71,10.0,WSW,12.7,17.3,N/A,,Mostly Cloudy,240,2012-12-19 02:54:00
10:43 PM,41.0,35.6,81,29.72,10.0,WNW,17.3,31.1,N/A,,Overcast,290,2012-12-19 03:43:00
10:54 PM,39.9,34.0,79,29.74,10.0,WNW,21.9,28.8,N/A,,Overcast,290,2012-12-19 03:54:00
11:54 PM,37.9,32.0,79,29.80,9.0,West,17.3,26.5,N/A,,Overcast,280,2012-12-19 04:54:00